New York, NY

12:20 AM EST on December 18, 2017 (GMT -0500)
La Guardia

Weather History for KLGA - October, 2014

Change the Weather History Date:

Saturday, October 25, 2014

  Actual Average Record
Temperature  
Mean Temperature 60 °F 55 °F  
Max Temperature 68 °F 62 °F 78 °F (2001)
Min Temperature 52 °F 48 °F 37 °F (1962)
Degree Days  
Heating Degree Days 5 10  
Month to date heating degree days 119 170  
Since 1 July heating degree days 132 205  
Cooling Degree Days 0 0  
Month to date cooling degree days 24 20  
Year to date cooling degree days 1192 1210  
Growing Degree Days 10 (Base 50)    
Moisture  
Dew Point 40 °F    
Average Humidity 48    
Maximum Humidity 59    
Minimum Humidity 37    
Precipitation  
Precipitation T in 0.12 in 1.52 in (1958)
Month to date precipitation 3.85 3.09  
Year to date precipitation 40.15 37.07  
Snow  
Snow 0.00 in 0.00 in - ()
Month to date snowfall 0.0 0.0  
Since 1 July snowfall 0.0 0.0  
Snow Depth 0.00 in    
Sea Level Pressure  
Sea Level Pressure 29.75 in    
Wind  
Wind Speed 11 mph (West)    
Max Wind Speed 22 mph    
Max Gust Speed 31 mph    
Visibility 10 miles    
Events      
T = Trace of Precipitation, MM = Missing Value Source: NWS Daily Summary

Daily Weather History Graph

Daily Weather History Graph

Search for Another Location

Airport or City:

Trip Planner

Search our weather history database for the weather conditions in past years. The results will help you decide how hot, cold, wet, or windy it might be!

Date:

Astronomy

Oct. 25, 2014 Rise Set
Actual Time 7:17 AM EDT 6:00 PM EDT
Civil Twilight 6:49 AM EDT 6:28 PM EDT
Nautical Twilight 6:17 AM EDT 7:00 PM EDT
Astronomical Twilight 5:45 AM EDT 7:32 PM EDT
Moon 8:54 AM EDT (10/25) 7:21 PM EDT (10/25)
Length of Visible Light 11h 38m
Length of Day
10h 42m
Waxing Crescent, 3% of the Moon is Illuminated
Oct 25
Waxing Crescent
Oct 30
First Quarter
Nov 6
Full
Nov 14
Last Quarter
Nov 22
New

Hourly Weather History & Observations

Time (EDT) Temp. Dew Point Humidity Pressure Visibility Wind Dir Wind Speed Gust Speed Precip Events Conditions
12:51 AM 57.0 °F 39.0 °F 51% 29.84 in 10.0 mi NNW 8.1 mph - N/A   Partly Cloudy
1:51 AM 55.9 °F 37.0 °F 49% 29.85 in 10.0 mi NW 12.7 mph - N/A   Mostly Cloudy
2:51 AM 55.0 °F 37.0 °F 51% 29.86 in 10.0 mi WNW 10.4 mph - N/A   Mostly Cloudy
3:51 AM 54.0 °F 39.0 °F 57% 29.85 in 10.0 mi NW 10.4 mph - N/A   Mostly Cloudy
4:51 AM 54.0 °F 39.0 °F 57% 29.85 in 10.0 mi NW 13.8 mph - N/A   Mostly Cloudy
5:51 AM 53.1 °F 37.9 °F 57% 29.86 in 10.0 mi WNW 9.2 mph - N/A   Scattered Clouds
6:51 AM 52.0 °F 37.0 °F 57% 29.86 in 10.0 mi WNW 8.1 mph - N/A   Partly Cloudy
7:51 AM 52.0 °F 37.0 °F 57% 29.86 in 10.0 mi West 6.9 mph - N/A   Partly Cloudy
8:51 AM 54.0 °F 37.0 °F 53% 29.86 in 10.0 mi West 12.7 mph - N/A   Partly Cloudy
9:51 AM 55.0 °F 39.0 °F 55% 29.85 in 10.0 mi WNW 10.4 mph - N/A   Partly Cloudy
10:51 AM 57.9 °F 39.0 °F 49% 29.84 in 10.0 mi West 9.2 mph - N/A   Partly Cloudy
11:51 AM 61.0 °F 39.9 °F 46% 29.81 in 10.0 mi West 12.7 mph - N/A   Partly Cloudy
12:51 PM 63.0 °F 39.9 °F 43% 29.77 in 10.0 mi West 9.2 mph - N/A   Partly Cloudy
1:51 PM 64.0 °F 39.9 °F 41% 29.73 in 10.0 mi SW 8.1 mph - N/A   Mostly Cloudy
2:51 PM 66.9 °F 39.9 °F 37% 29.70 in 10.0 mi WSW 10.4 mph - N/A   Scattered Clouds
3:51 PM 68.0 °F 42.1 °F 39% 29.67 in 10.0 mi SW 9.2 mph - N/A   Scattered Clouds
4:51 PM 66.9 °F 43.0 °F 42% 29.65 in 10.0 mi SW 16.1 mph 20.7 mph N/A   Partly Cloudy
5:51 PM 66.0 °F 42.1 °F 42% 29.65 in 10.0 mi SW 10.4 mph - N/A   Scattered Clouds
6:51 PM 64.9 °F 43.0 °F 45% 29.64 in 10.0 mi SW 6.9 mph - N/A   Scattered Clouds
7:51 PM 64.0 °F 43.0 °F 46% 29.64 in 10.0 mi SW 8.1 mph - N/A   Mostly Cloudy
8:51 PM 64.0 °F 43.0 °F 46% 29.61 in 10.0 mi SW 13.8 mph - N/A   Scattered Clouds
9:51 PM 63.0 °F 43.0 °F 48% 29.59 in 10.0 mi SW 17.3 mph 25.3 mph N/A   Partly Cloudy
10:51 PM 63.0 °F 44.1 °F 50% 29.58 in 10.0 mi WSW 17.3 mph 27.6 mph N/A   Partly Cloudy
11:51 PM 62.1 °F 45.0 °F 53% 29.56 in 10.0 mi SW 13.8 mph 20.7 mph N/A   Partly Cloudy